Location: Aranbee
(34.0885°N, 118.2342°W)
Time: 08:10:17
(UTC+00:00)

Courier 1B Rocket - Pass Details

Date: 03 December 2020
Orbit: 920 x 1202 km, 28.2° (Epoch: 27 January)

Event Time Altitude Azimuth Distance (km) Brightness Sun altitude
Rises 18:06:34 0° 263° (W) 4,054 8.1 29.2°
Reaches altitude 10° 18:11:16 10° 238° (WSW) 3,043 7.8 29.6°
Maximum altitude 18:14:31 13° 212° (SSW) 2,762 8.0 29.9°
Drops below altitude 10° 18:17:42 10° 186° (S) 2,956 8.6 30.1°
Sets 18:22:10 0° 160° (SSE) 3,843 9.3 30.5°
